This is the latest recevied weather packets stored in our database for station/object W6MAF. If no packets are shown the sender has not sent any weather packets the latest 10 day(s).
| Time | Temp. | Humidity | Pressure | Rain* | Wind** | Luminosity | Snow |
|---|---|---|---|---|---|---|---|
| 1777980404 | 6.67° C | 100% | - | 0 mm | 3.58 m/s, 191° | - | - |
| 1777980367 | 6.67° C | 100% | - | 0 mm | 3.58 m/s, 191° | - | - |
| 1777980070 | 6.11° C | 100% | - | 0 mm | 2.68 m/s, 204° | - | - |
| 1777979772 | 6.11° C | 100% | - | 0 mm | 4.92 m/s, 236° | - | - |
| 1777979474 | 6.11° C | 100% | - | 0 mm | 4.92 m/s, 217° | - | - |
| 1777979177 | 6.11° C | 100% | - | 0 mm | 3.13 m/s, 222° | - | - |
| 1777978876 | 6.11° C | 100% | - | 0 mm | 4.47 m/s, 219° | - | - |
| 1777978578 | 6.11° C | 100% | - | 0 mm | 3.58 m/s, 236° | - | - |
| 1777978280 | 6.11° C | 100% | - | 0 mm | 3.58 m/s, 253° | - | - |
| 1777977983 | 6.11° C | 100% | - | 0 mm | 4.02 m/s, 235° | - | - |
| 1777977685 | 6.11° C | 100% | - | 0 mm | 4.02 m/s, 225° | - | - |
| 1777977087 | 6.11° C | 100% | - | 0 mm | 3.13 m/s, 207° | - | - |
| 1777976789 | 6.11° C | 100% | - | 0 mm | 3.58 m/s, 236° | - | - |
| 1777976491 | 6.11° C | 99% | - | 0 mm | 3.58 m/s, 215° | - | - |
| 1777976194 | 6.11° C | 99% | - | 0 mm | 4.47 m/s, 200° | - | - |
| 1777975896 | 6.11° C | 99% | - | 0 mm | 4.02 m/s, 197° | - | - |
| 1777975598 | 6.11° C | 99% | - | 0 mm | 4.47 m/s, 215° | - | - |
| 1777975297 | 6.11° C | 99% | - | 0 mm | 5.36 m/s, 211° | - | - |
| 1777975000 | 6.11° C | 99% | - | 0 mm | 4.92 m/s, 219° | - | - |
| 1777974704 | 6.11° C | 99% | - | 0 mm | 4.02 m/s, 207° | - | - |
| 1777974404 | 6.11° C | 98% | - | 0 mm | 4.02 m/s, 229° | - | - |
| 1777974107 | 6.11° C | 98% | - | 0 mm | 3.58 m/s, 194° | - | - |
| 1777973809 | 6.67° C | 98% | - | 0 mm | 2.68 m/s, 200° | - | - |
| 1777973508 | 6.11° C | 98% | - | 0 mm | 3.58 m/s, 210° | - | - |
| 1777973210 | 6.11° C | 98% | - | 0 mm | 4.47 m/s, 224° | - | - |
* Rain latest hour (hover to see other rain measurements)
** Current wind speed in m/s (hover to see current wind gust speed)